User: anonymous   Login
Location: Ciserano
(45.5833°N, 9.6000°E)
Time: 09:37:39
(UTC+00:00)
Language:

FALCON 9 DEB - Orbit

View from above orbital plane
View from above orbital plane
View from above satellite
View from above satellite

Ground track
Ground track

The orbit data is extracted from the following two-line orbital elements,

1 46087U 20055BN  21065.75842762  .00015020  00000-0  16726-3 0  9995
2 46087  53.0080 339.1651 0010277 241.8920 118.1055 15.63058569 37621
Epoch (UTC): 06 March 2021 18:12:08
Eccentricity: 0.0010277
inclination: 53.0080°
perigee height: 372 km
apogee height: 386 km
right ascension of ascending node: 339.1651°
argument of perigee: 241.8920°
revolutions per day: 15.63058569
mean anomaly at epoch: 118.1055°
orbit number at epoch: 3762

The dashed part of the orbit path shows where the satellite is in the earth's shadow,  

DLR